Location: DaVinci Observatory
(43.1080°N, 78.6453°W)
Time: 17:31:27
(UTC-05:00)

Envisat - Pass Details

Date: 11 October 2017
Orbit: 764 x 766 km, 98.2° (Epoch: 18 December)

Event Time Altitude Azimuth Distance (km) Brightness Sun altitude
Exits shadow 20:30:44 46° 82° (E) 1,018 3.2 -21.3°
Maximum altitude 20:31:02 47° 71° (ENE) 1,010 3.2 -21.4°
Drops below altitude 10° 20:35:54 10° 358° (N) 2,314 5.6 -22.3°
Sets 20:38:17 0° 353° (N) 3,245 6.5 -22.7°
